Location: Unspecified
(30.7333°N, 0.0000°E)
Time: 19:51:59
(UTC+00:00)

Okean O Rocket - Visible Passes

Search period start: 04 April 2026 00:00
Search period end: 14 April 2026 00:00
Orbit: 614 x 634 km, 98.0° (Epoch: 29 March)

Date Brightness Start Highest point End Pass type
(mag) Time Alt. Az. Time Alt. Az. Time Alt. Az.
4 Apr 4.0 20:11:37 12° NNE 20:11:37 12° NNE 20:12:04 10° NNE visible
5 Apr 3.9 20:30:09 15° NNE 20:30:09 15° NNE 20:31:04 10° N visible
6 Apr 3.9 20:48:40 17° N 20:48:40 17° N 20:49:46 10° N visible
7 Apr 4.0 21:07:10 18° NNW 21:07:10 18° NNW 21:08:15 10° NNW visible
8 Apr 4.3 21:25:41 15° NNW 21:25:41 15° NNW 21:26:32 10° NNW visible
9 Apr 3.8 20:06:58 13° NE 20:06:58 13° NE 20:07:40 10° NNE visible
9 Apr 4.7 21:44:12 12° NW 21:44:12 12° NW 21:44:34 10° NW visible
10 Apr 3.6 20:25:28 17° NNE 20:25:28 17° NNE 20:26:46 10° NNE visible
11 Apr 3.6 20:43:59 21° N 20:43:59 21° N 20:45:31 10° N visible
12 Apr 3.7 21:02:29 22° N 21:02:29 22° N 21:04:03 10° N visible
13 Apr 4.0 21:21:00 20° NNW 21:21:00 20° NNW 21:22:22 10° NNW visible
